Wind_Speed
61 60 59 59 59 59 60 61 61 63 64 66 66 68 69 71 65 56 54 48 42 43 37 35 35 36 46 51 47 42 41 32 30 33 31 24 23 23 23 23 23 23 25 29
68 68 68 65 64 64 63 65 65 69 69 72 73 72 73 74 76 65 53 53 47 42 41 35 34 36 40 48 54 48 44 38 30 33 32 30 25 24 23 22 21 22 23 27
74 74 72 70 70 69 67 68 71 75 74 75 76 74 75 76 76 75 67 53 51 45 43 38 35 36 38 43 51 53 48 45 37 31 35 31 31 27 25 23 22 21 22 24
74 78 78 75 75 74 74 73 75 77 76 79 77 78 80 80 81 82 80 62 51 46 43 43 36 36 34 40 45 53 52 49 45 36 33 35 30 30 28 26 23 23 20 22
78 81 79 79 79 80 78 76 77 79 81 85 85 84 87 85 84 85 86 76 54 47 46 45 42 36 36 36 42 49 57 53 49 44 35 36 35 30 32 28 25 23 21 18
79 83 84 81 79 82 82 83 84 85 87 89 87 87 86 87 88 89 88 81 62 51 46 45 46 42 38 35 38 43 55 58 55 47 42 34 37 37 32 32 29 25 22 20
86 84 86 86 84 85 88 89 90 91 92 92 90 88 92 92 94 91 94 87 70 56 49 45 44 46 41 37 35 41 48 62 60 55 47 35 43 40 36 33 32 28 26 20
95 90 89 90 91 91 90 95 93 93 93 93 96 96 97 99 98 97 95 82 69 58 53 46 44 46 44 42 36 41 47 55 64 61 55 43 47 44 39 37 34 33 29 22
100 99 99 97 94 96 98 98 96 96 98 98 99 99 99 101 96 95 91 75 67 62 57 51 48 45 48 45 43 40 48 53 62 65 62 50 50 51 45 42 40 33 32 27
104 102 104 103 101 104 101 99 103 102 102 101 100 100 102 101 91 87 83 73 68 65 66 58 52 45 47 46 47 45 46 53 55 68 65 57 57 60 50 46 45 39 33 32
110 109 107 107 108 106 108 106 106 106 105 104 104 103 101 93 87 84 79 73 68 69 67 65 58 51 47 47 48 47 46 48 56 59 70 64 68 64 55 50 46 43 37 34
114 114 114 112 110 111 109 110 111 112 111 109 106 105 103 89 86 82 76 74 69 69 68 67 61 58 51 48 49 51 44 46 54 57 63 75 70 68 63 54 48 45 44 39
124 121 122 122 115 115 114 115 115 117 113 111 109 107 102 94 90 82 76 72 70 69 67 67 63 65 56 51 51 49 49 49 46 56 61 76 82 75 70 60 53 50 48 46
128 125 123 125 123 121 121 117 116 113 112 110 111 100 93 88 83 80 76 73 73 70 69 66 64 66 61 55 49 47 51 52 54 59 66 76 83 83 75 69 61 56 53 52
127 127 127 125 125 124 118 117 119 118 118 113 103 93 87 84 83 79 77 74 72 70 66 66 60 63 61 58 52 53 62 57 54 63 72 72 81 86 82 75 70 66 60 56
123 123 130 125 123 122 119 117 117 115 111 103 100 92 87 84 80 77 77 74 70 69 66 64 61 65 67 58 51 64 65 56 58 59 68 72 77 86 90 85 78 71 66 58
124 125 127 130 124 121 119 121 115 111 103 101 99 94 89 83 79 73 72 72 69 66 62 58 58 64 67 61 58 66 57 61 60 59 68 73 80 83 89 87 82 74 69 63
128 120 118 118 115 117 116 114 108 101 92 92 88 80 78 78 74 66 69 70 69 63 52 54 59 59 57 50 57 68 63 61 63 65 63 71 79 76 83 86 89 81 74 69
128 119 114 111 112 112 107 99 93 84 77 79 76 80 78 74 68 62 63 66 63 59 53 56 61 59 57 54 55 61 63 62 72 70 63 71 77 81 82 86 88 87 81 76
118 117 115 109 109 105 98 89 89 90 80 72 73 72 69 67 64 58 55 55 56 54 60 61 55 46 57 55 59 62 64 65 72 72 68 69 75 81 82 84 86 88 87 81
105 108 106 109 117 110 107 107 104 89 76 71 76 73 75 73 71 66 65 62 67 58 55 57 54 51 58 59 63 66 59 62 72 74 72 68 73 81 82 83 83 85 89 87
100 103 104 107 111 117 113 109 103 103 103 96 95 87 87 79 74 72 64 69 69 60 59 60 51 60 63 67 66 65 57 63 73 76 75 71 71 81 81 82 82 83 85 91
94 96 95 98 100 103 99 106 110 110 108 102 97 101 82 75 88 85 79 79 70 71 70 66 67 68 60 58 63 61 60 62 73 77 72 73 75 76 80 82 83 83 81 87
90 90 91 93 91 90 92 94 96 99 99 95 99 100 99 96 92 79 88 78 76 76 76 79 65 57 55 56 61 64 64 62 69 74 71 76 75 75 79 80 83 82 79 84
85 86 86 84 82 83 84 84 85 86 86 88 93 91 89 92 89 82 79 74 78 85 85 74 63 58 57 60 62 62 63 66 69 70 70 74 76 75 78 79 80 81 80 80
88 86 82 82 82 81 81 82 84 86 86 85 84 84 84 85 78 79 82 86 87 77 77 70 63 61 61 61 62 58 59 64 68 66 67 71 72 75 75 76 77 78 79 79
83 80 81 83 84 84 83 83 83 83 83 82 82 83 83 79 78 82 84 82 75 75 73 71 67 64 60 57 56 54 56 60 62 64 64 65 69 72 73 73 75 77 78 78
Wind_Direction
290 292 293 297 301 303 307 311 314 317 321 324 326 330 333 335 334 332 324 323 314 312 321 317 305 276 253 248 248 252 257 264 277 278 285 287 294 299 307 314 323 333 337 341
287 290 292 292 295 300 304 307 310 311 316 318 320 322 328 328 332 332 322 320 315 307 310 317 309 293 271 253 246 247 254 255 266 275 276 281 285 290 298 305 313 323 334 336
285 288 290 292 294 296 299 302 304 307 312 313 316 318 321 324 327 331 327 316 314 307 302 306 307 301 285 267 251 244 247 252 253 265 273 274 280 284 288 296 302 312 325 332
283 283 287 289 292 294 298 300 302 304 308 311 312 315 316 319 321 324 326 318 307 310 299 297 302 299 298 281 263 245 240 248 251 252 264 269 270 277 281 286 292 301 314 323
282 278 282 287 290 291 294 295 299 302 304 305 308 311 312 315 318 320 323 321 305 306 300 292 296 295 291 284 267 250 239 241 247 251 253 262 265 264 274 278 283 288 298 311
279 280 282 285 288 289 292 293 296 299 301 304 307 308 309 312 315 316 319 318 309 298 301 294 287 292 289 286 274 261 242 238 241 246 246 255 257 261 266 271 276 278 286 298
277 280 281 281 283 286 289 290 293 296 300 302 307 310 310 310 309 311 313 313 310 296 298 297 287 287 288 282 276 265 250 238 238 241 241 245 251 258 262 261 269 272 274 282
275 277 279 280 281 283 287 289 291 294 297 301 302 303 305 307 309 309 312 308 305 295 292 295 291 282 286 283 277 264 255 244 236 238 241 238 248 252 259 256 260 264 269 270
274 276 278 280 280 282 285 287 289 291 293 297 299 301 303 305 307 308 309 301 298 294 294 292 294 283 281 284 277 268 255 247 238 236 237 233 247 249 251 258 254 259 263 262
272 275 277 279 279 281 282 285 286 289 291 293 296 299 300 302 302 303 301 296 294 294 293 294 292 286 274 280 276 268 260 251 245 234 235 235 242 247 246 250 255 257 255 258
268 272 274 276 277 279 280 281 284 286 287 290 294 295 298 298 299 297 294 291 287 288 291 294 291 287 277 275 273 268 264 255 248 241 232 232 241 244 246 246 254 259 255 254
268 270 271 273 275 277 279 281 282 284 285 287 291 292 295 294 295 295 288 286 284 286 289 293 290 288 283 274 274 271 267 259 251 247 236 232 238 244 243 243 247 251 253 251
270 268 269 271 274 277 278 279 279 280 282 285 288 289 290 290 291 291 286 282 283 284 287 290 287 282 282 276 274 271 269 266 256 246 240 233 233 238 241 238 239 245 249 249
265 266 267 270 271 274 276 279 281 281 283 284 286 284 286 284 286 285 283 280 281 282 287 286 279 279 281 280 277 273 268 264 251 245 237 234 232 234 238 239 236 239 244 246
263 265 265 265 268 270 272 276 277 280 280 283 282 279 277 275 279 280 279 277 277 278 281 278 275 274 274 274 277 270 262 261 254 240 240 237 232 231 233 236 237 236 239 242
261 262 264 263 266 267 271 273 274 275 277 276 275 274 273 274 274 274 275 274 274 277 274 271 265 268 272 272 269 261 260 264 265 250 244 243 234 231 230 231 233 236 237 238
259 260 261 266 265 265 268 271 270 269 269 269 270 270 270 271 271 270 270 271 271 271 271 261 263 265 268 270 257 251 271 267 265 261 246 241 239 234 233 231 232 234 237 239
263 261 263 263 264 266 268 268 267 266 264 266 265 267 267 268 266 268 267 267 267 265 266 262 261 263 268 265 248 256 266 269 265 259 254 242 243 241 237 232 231 231 234 237
262 264 263 262 265 268 269 267 267 264 264 266 260 263 260 263 263 274 269 261 261 259 266 266 259 266 266 262 256 257 257 260 260 260 257 244 239 237 237 236 231 230 231 232
252 257 261 262 266 266 267 265 265 267 267 260 258 259 259 260 273 273 266 264 262 263 264 267 270 281 270 263 259 258 253 256 257 258 254 247 241 236 236 237 235 228 230 232
251 251 251 252 254 257 259 261 263 269 269 266 270 268 272 269 273 276 277 279 274 268 259 273 281 284 270 261 255 256 256 258 255 255 256 251 244 240 233 236 236 233 229 231
246 245 244 244 245 249 254 258 259 262 265 268 268 268 274 274 278 282 278 280 278 281 281 285 276 277 268 263 261 260 258 251 252 252 253 251 246 241 237 233 236 235 231 230
240 241 243 244 246 249 252 254 257 259 260 263 261 267 274 275 281 280 279 284 286 284 290 294 287 266 262 262 263 262 260 251 250 253 252 252 246 243 238 234 234 236 233 230
238 241 241 243 246 248 251 252 253 255 257 254 263 269 272 274 272 278 281 283 284 287 292 287 278 276 269 263 256 258 260 253 250 252 251 247 246 242 238 234 235 235 235 231
236 238 241 244 246 247 249 250 252 255 257 259 263 266 269 272 276 279 281 281 285 287 288 288 282 273 267 263 259 258 257 253 252 252 248 244 243 241 237 234 234 235 235 234
232 235 237 240 242 244 247 250 252 256 259 261 264 266 269 273 277 279 280 282 285 286 285 282 275 271 266 261 259 257 257 257 256 251 244 242 241 239 236 234 234 234 236 235
229 230 233 236 239 243 247 249 252 254 257 259 263 267 271 274 277 277 277 281 281 278 275 275 276 271 267 263 259 258 255 255 249 245 243 241 238 236 236 233 233 234 234 235
Height
10817 10818 10819 10819 10818 10816 10816 10814 10812 10810 10808 10805 10802 10799 10796 10792 10791 10787 10781 10777 10771 10767 10766 10765 10761 10760 10761 10764 10768 10772 10774 10775 10776 10777 10777 10775 10774 10771 10769 10767 10764 10760 10756 10751
10805 10804 10805 10806 10807 10805 10805 10802 10801 10797 10798 10794 10792 10789 10786 10783 10781 10779 10773 10769 10764 10759 10757 10756 10754 10750 10750 10752 10756 10761 10766 10768 10769 10770 10770 10770 10768 10767 10764 10762 10760 10757 10753 10749
10791 10789 10789 10791 10791 10792 10792 10790 10789 10785 10787 10781 10780 10778 10774 10773 10770 10769 10765 10760 10755 10752 10747 10745 10745 10742 10741 10741 10744 10749 10755 10757 10760 10761 10763 10763 10763 10761 10759 10757 10755 10753 10750 10747
10775 10775 10774 10775 10776 10777 10778 10777 10776 10774 10774 10769 10767 10766 10761 10759 10759 10756 10754 10751 10745 10743 10738 10733 10734 10734 10731 10730 10733 10737 10743 10746 10750 10752 10754 10755 10755 10754 10753 10751 10750 10748 10745 10743
10758 10758 10758 10758 10761 10760 10761 10762 10762 10760 10760 10755 10752 10750 10748 10746 10745 10742 10738 10738 10734 10732 10727 10724 10721 10722 10721 10719 10719 10722 10729 10733 10738 10742 10745 10746 10746 10746 10746 10745 10744 10743 10740 10739
10739 10740 10742 10743 10745 10745 10745 10745 10746 10747 10745 10741 10738 10735 10732 10731 10729 10728 10724 10722 10721 10717 10715 10713 10710 10708 10709 10709 10707 10710 10715 10721 10724 10730 10735 10738 10736 10736 10739 10738 10736 10736 10735 10734
10719 10720 10722 10725 10727 10728 10728 10729 10729 10730 10729 10724 10719 10719 10716 10714 10713 10711 10709 10706 10706 10701 10701 10700 10699 10697 10697 10697 10695 10696 10700 10705 10711 10717 10721 10731 10722 10726 10729 10729 10729 10729 10729 10728
10696 10700 10703 10705 10707 10709 10711 10709 10710 10710 10710 10709 10704 10706 10702 10699 10696 10693 10692 10687 10687 10686 10685 10685 10684 10683 10683 10683 10684 10683 10684 10688 10696 10703 10707 10718 10713 10714 10718 10719 10720 10721 10721 10722
10673 10677 10681 10685 10687 10688 10691 10691 10690 10691 10690 10688 10687 10687 10685 10680 10678 10677 10675 10671 10668 10667 10668 10668 10668 10669 10668 10670 10670 10668 10668 10671 10679 10687 10694 10704 10700 10700 10705 10709 10708 10713 10714 10715
10650 10654 10656 10661 10665 10668 10671 10671 10669 10672 10669 10666 10668 10669 10667 10664 10660 10659 10656 10655 10651 10651 10647 10652 10651 10654 10654 10656 10655 10652 10652 10655 10663 10669 10679 10691 10684 10680 10691 10696 10698 10702 10705 10707
10630 10631 10633 10638 10641 10644 10648 10648 10648 10649 10647 10646 10646 10647 10647 10645 10643 10641 10640 10639 10636 10632 10632 10633 10633 10636 10636 10639 10638 10637 10637 10641 10646 10652 10665 10673 10662 10668 10678 10685 10689 10693 10695 10697
10603 10606 10609 10613 10618 10621 10625 10624 10624 10625 10626 10625 10625 10626 10627 10627 10625 10625 10622 10620 10618 10616 10615 10616 10616 10618 10620 10622 10623 10621 10626 10626 10630 10639 10648 10653 10652 10653 10661 10673 10679 10681 10683 10686
10571 10579 10581 10586 10589 10594 10597 10599 10601 10602 10603 10602 10603 10602 10605 10605 10606 10606 10604 10600 10598 10598 10599 10599 10599 10595 10601 10604 10605 10608 10609 10610 10617 10619 10627 10628 10630 10633 10643 10657 10662 10667 10670 10672
10540 10550 10553 10555 10561 10565 10568 10569 10569 10574 10575 10577 10577 10575 10578 10578 10582 10584 10585 10582 10580 10581 10581 10583 10581 10579 10582 10587 10591 10592 10589 10588 10592 10601 10601 10599 10607 10615 10627 10639 10646 10650 10653 10657
10511 10514 10524 10530 10534 10537 10543 10544 10545 10547 10547 10552 10552 10553 10556 10556 10558 10562 10564 10563 10564 10564 10564 10566 10565 10561 10563 10568 10575 10571 10559 10564 10568 10570 10569 10576 10583 10592 10607 10617 10626 10631 10635 10641
10480 10485 10485 10498 10505 10509 10512 10521 10519 10518 10522 10526 10524 10531 10531 10533 10537 10538 10540 10542 10543 10545 10547 10548 10546 10541 10541 10551 10554 10541 10537 10551 10551 10554 10557 10564 10565 10570 10576 10590 10602 10613 10620 10627
10441 10450 10460 10460 10473 10482 10483 10495 10498 10494 10499 10504 10501 10507 10508 10508 10513 10516 10520 10522 10524 10525 10528 10529 10526 10521 10522 10533 10534 10506 10533 10529 10532 10535 10536 10542 10544 10551 10560 10580 10589 10601 10610 10616
10394 10409 10418 10428 10440 10447 10453 10459 10463 10465 10474 10477 10482 10488 10485 10485 10490 10496 10499 10501 10504 10507 10509 10510 10506 10503 10501 10510 10503 10501 10512 10513 10510 10509 10516 10527 10529 10543 10547 10555 10565 10581 10592 10599
10354 10368 10384 10394 10402 10406 10413 10420 10425 10435 10448 10455 10464 10464 10461 10465 10471 10473 10475 10479 10482 10489 10490 10485 10484 10486 10483 10479 10485 10486 10490 10493 10485 10489 10498 10505 10512 10515 10525 10531 10547 10562 10571 10579
10340 10348 10352 10360 10366 10372 10382 10390 10400 10411 10428 10437 10438 10438 10441 10443 10448 10452 10455 10459 10461 10469 10468 10461 10465 10468 10457 10459 10460 10465 10465 10470 10467 10470 10475 10482 10491 10493 10500 10512 10524 10540 10551 10561
10316 10329 10335 10339 10341 10349 10355 10363 10374 10389 10401 10411 10413 10412 10415 10420 10425 10429 10434 10438 10439 10444 10445 10436 10444 10440 10433 10434 10437 10437 10449 10453 10448 10454 10454 10460 10472 10474 10480 10488 10502 10516 10532 10544
10286 10297 10301 10309 10315 10320 10328 10342 10355 10370 10378 10389 10387 10384 10387 10398 10403 10408 10410 10410 10414 10415 10415 10413 10417 10410 10407 10409 10415 10420 10426 10433 10430 10433 10434 10439 10448 10455 10463 10470 10480 10492 10507 10520
10258 10261 10273 10282 10290 10297 10313 10330 10342 10348 10355 10357 10359 10360 10368 10374 10379 10383 10384 10386 10391 10388 10389 10391 10386 10377 10390 10396 10397 10397 10403 10408 10411 10411 10416 10419 10426 10435 10445 10452 10457 10468 10484 10498
10228 10238 10250 10257 10271 10285 10298 10305 10310 10319 10327 10334 10336 10340 10347 10352 10354 10361 10362 10364 10364 10365 10364 10358 10360 10367 10368 10369 10372 10374 10377 10383 10387 10388 10393 10396 10402 10411 10421 10432 10436 10448 10463 10473
10204 10213 10225 10239 10253 10262 10270 10279 10287 10294 10303 10310 10314 10318 10324 10327 10333 10337 10340 10341 10342 10337 10333 10340 10341 10342 10344 10347 10351 10354 10356 10359 10362 10367 10370 10374 10380 10389 10399 10411 10418 10428 10439 10451
10184 10197 10213 10223 10231 10242 10250 10257 10264 10273 10281 10287 10294 10298 10303 10306 10313 10316 10316 10314 10317 10318 10316 10315 10317 10320 10323 10326 10328 10334 10336 10338 10340 10347 10350 10354 10361 10370 10379 10391 10399 10409 10418 10430
10173 10187 10196 10204 10213 10222 10230 10238 10247 10256 10263 10269 10274 10280 10282 10289 10294 10292 10289 10296 10300 10296 10292 10294 10297 10299 10302 10306 10310 10315 10316 10316 10318 10324 10331 10337 10342 10350 10359 10370 10379 10388 10396 10406